Regional Weather Roundup
Issued by NWS

Home | Current Version | Previous Version | Text Only | Print | Product List | Glossary Off
Versions: 1 2 3 4 5 6 7 8 9 10 11 12 13 14 15 16 17 18 19 20 21 22 23 24 25 26 27 28 29 30 31 32 33 34 35 36 37 38 39 40 41 42 43 44 45 46 47 48 49 50

000
ASUS43 KOAX 251902
RWRNE

WEATHER ROUNDUP FOR NEBRASKA
NATIONAL WEATHER SERVICE OMAHA NE
100 PM CST THU DEC 25 2014

NOTES: SATELLITE DATA IS BEING USED TO AUGMENT CLOUD COVER ABOVE
       12000 FEET.
       "FAIR" INDICATES FEW OR NO CLOUDS BELOW 12,000 FEET WITH NO
       SIGNIFICANT WEATHER AND/OR OBSTRUCTIONS TO VISIBILITY.

  * THESE STATIONS DO NOT REPORT WEATHER SUCH AS RAIN...SNOW OR FOG.

NEZ001>004-019>022-054>056-252000-
NEBRASKA PANHANDLE

CITY           SKY/WX    TMP DP  RH WIND       PRES   REMARKS
SCOTTSBLUFF    SNOW      30  28  92 VRB3      29.59R VSB 1/2
ALLIANCE       SNOW      29  27  92 N20       29.56F VSB 1/2 WCI  16
CHADRON        FOG       30  28  92 NE18      29.66R VSB 1/2 WCI  18
KIMBALL        LGT SNOW  30  28  93 N16       29.49F WCI  19
SIDNEY         LGT SNOW  30  27  88 N20       29.51S FOG     WCI  17
$$

NEZ057>060-069>072-079>082-252000-
SOUTHWEST NEBRASKA

CITY           SKY/WX    TMP DP  RH WIND       PRES   REMARKS
NORTH PLATTE   SUNNY     42  26  53 N15G24    29.47S
IMPERIAL       MOSUNNY   42  28  57 N20       29.44F
LEXINGTON      SUNNY     38  25  61 NE5       29.46F WCI  34
MCCOOK         SUNNY     39  23  52 N6        29.45R WCI  35
$$

NEZ005>010-023>029-035>040-094-252000-
NORTH CENTRAL NEBRASKA

CITY           SKY/WX    TMP DP  RH WIND       PRES   REMARKS
VALENTINE      LGT SNOW  31  30  96 N20G26    29.62F VSB 1   WCI  19
AINSWORTH      PTSUNNY   32  27  81 N20G25    29.58S WCI  20
BROKEN BOW     SUNNY     39  26  59 NE8       29.48F WCI  33
O`NEILL        SUNNY     32  29  90 N12G17    29.57S WCI  23
ORD            SUNNY     40  25  55 E7        29.50S
$$

NEZ041-046>049-061>064-073>077-083>087-252000-
SOUTH CENTRAL NEBRASKA

CITY           SKY/WX    TMP DP  RH WIND       PRES   REMARKS
GRAND ISLAND   SUNNY     42  25  50 S9        29.52F
AURORA         SUNNY     43  28  55 S13       29.51F
HASTINGS       SUNNY     43  24  47 S12       29.49F
HEBRON         SUNNY     47  26  44 S15G21    29.53F
HOLDREGE       SUNNY     40  23  50 SE7       29.45F
KEARNEY *      SUNNY     41  23  48 SE7       29.48F
YORK           SUNNY     43  28  56 S14       29.53F
$$

NEZ011>018-030>034-042>045-252000-
NORTHEAST NEBRASKA

CITY           SKY/WX    TMP DP  RH WIND       PRES   REMARKS
NORFOLK        SUNNY     39  28  64 SE8       29.55F WCI  33
ALBION         SUNNY     39  28  64 E8        29.53F WCI  34
BLAIR          SUNNY     45  32  60 SE13G20   29.58F
COLUMBUS *     SUNNY     43  28  56 S15       29.56F
FREMONT        SUNNY     45  32  61 SE10G17   29.58F
TEKAMAH        SUNNY     42  34  73 SE13      29.61F
WAYNE          MOSUNNY   39  29  67 SE5       29.59F
$$

NEZ050>053-065>068-078-088>093-252000-
SOUTHEAST NEBRASKA

CITY           SKY/WX    TMP DP  RH WIND       PRES   REMARKS
LINCOLN        SUNNY     48  31  51 S18G25    29.57F
OMAHA EPPLEY   MOSUNNY   45  30  55 S17       29.62F
BEATRICE       SUNNY     48  30  49 S15G25    29.56S
FALLS CITY     SUNNY     49  31  49 S20G31    29.61F
NEBRASKA CITY  SUNNY     47  29  48 S20       29.60F
$$

NEZ044-045-051>053-067-252000-
OMAHA AREA

CITY           SKY/WX    TMP DP  RH WIND       PRES   REMARKS
OMAHA EPPLEY   MOSUNNY   45  30  55 S17       29.62F
BLAIR          SUNNY     45  32  60 SE13G20   29.58F
FREMONT        SUNNY     45  32  61 SE10G17   29.58F
MILLARD        SUNNY     46  33  59 SE14      29.59F
OFFUTT AFB     SUNNY     44  33  63 SE18      29.60F
WAHOO          FAIR      44  32  63 SE13      29.58F
$$


USA.gov is the U.S. government's official web portal to all federal, state and local government web resources and services.